Find Starlink 31239

NORAD ID: 60093 Int'l Des: 2024-117 Owner: SPXS Country: US Constellation: starlink operational
LEOCIRCULAR

現在のビュー

3D地球を読み込み中...

About Starlink 31239

Starlink 31239 (NORAD 60093) is a starlink constellation satellite (v2 mini) launched Jun 23, 2024 by SPXS of US. It operates in LEO, CIRCULAR orbit with a mass of 730.00 kg.

次回通過

Passes for default location (London). Set your location on the main map for personalized predictions.

高度履歴

Loading altitude history...

軌道要素

1 60093U 24117C 26264.25675702 -.00001493 00000-0 -33084-4 0 9998
2 60093 53.1587 206.2597 0001538 86.4638 273.6540 15.34376622126861
Epoch: Sep 21, 2026 • Age: 27 hours

現在のステータス

高度 468.3 km
遠地点 / 近地点 N/A
速度 7.64 km/s
衛星直下点 53.30°N, 151.18°E
打ち上げ日 Jun 23, 2024
運用期間 2.2 years
タイプ internet

技術仕様

分類 Payload
質量 730.00 kg
乾燥質量 700.00 kg
長さ 0.30 m
スパン 29.00 m
形状 ? Box + pan
製造者 SPXS
バスタイプ Starlink V2M
フェーズステータス In Orbit
所有者/国 SPXS/US

Most Searched